Time,TemperatureF,DewpointF,PressureIn,WindDirection,WindDirectionDegrees,WindSpeedMPH,WindSpeedGustMPH,Humidity,HourlyPrecipIn,Conditions,Clouds,dailyrainin,SoftwareType,DateUTC
2013-03-09 00:17:00,25.3,24.8,30.33,West,270,0.0,-999.0,98,-99.99,,,0.00,Acu-Link.com,2013-03-09 05:17:00,
2013-03-09 00:32:00,25.0,24.5,30.34,West,270,0.0,-999.0,98,-99.99,,,0.00,Acu-Link.com,2013-03-09 05:32:00,
2013-03-09 00:48:00,25.3,25.1,30.34,West,270,0.0,-999.0,99,-99.99,,,0.00,Acu-Link.com,2013-03-09 05:48:00,
2013-03-09 01:03:00,24.6,24.4,30.34,West,270,0.0,-999.0,99,-99.99,,,0.00,Acu-Link.com,2013-03-09 06:03:00,
2013-03-09 01:18:00,23.7,23.2,30.34,West,270,0.0,-999.0,98,-99.99,,,0.00,Acu-Link.com,2013-03-09 06:18:00,
2013-03-09 01:33:00,24.4,24.2,30.34,West,270,0.0,-999.0,99,-99.99,,,0.00,Acu-Link.com,2013-03-09 06:33:00,
2013-03-09 01:48:00,23.5,23.3,30.34,West,270,0.0,-999.0,99,-99.99,,,0.00,Acu-Link.com,2013-03-09 06:48:00,
2013-03-09 02:04:00,23.2,23.0,30.34,West,270,0.0,-999.0,99,-99.99,,,0.00,Acu-Link.com,2013-03-09 07:04:00,
2013-03-09 02:19:00,23.5,23.3,30.34,West,270,0.0,-999.0,99,-99.99,,,0.00,Acu-Link.com,2013-03-09 07:19:00,
2013-03-09 02:34:00,23.7,23.5,30.33,West,270,0.0,-999.0,99,-99.99,,,0.00,Acu-Link.com,2013-03-09 07:34:00,
2013-03-09 02:49:00,23.2,23.0,30.32,West,270,0.0,-999.0,99,-99.99,,,0.00,Acu-Link.com,2013-03-09 07:49:00,
2013-03-09 03:05:00,25.0,24.8,30.32,West,270,0.0,-999.0,99,-99.99,,,0.00,Acu-Link.com,2013-03-09 08:05:00,
2013-03-09 03:20:00,24.8,24.6,30.32,West,270,0.0,-999.0,99,-99.99,,,0.00,Acu-Link.com,2013-03-09 08:20:00,
2013-03-09 03:35:00,23.9,23.7,30.31,West,270,0.0,-999.0,99,-99.99,,,0.00,Acu-Link.com,2013-03-09 08:35:00,
2013-03-09 03:50:00,23.5,23.3,30.31,West,270,0.0,-999.0,99,-99.99,,,0.00,Acu-Link.com,2013-03-09 08:50:00,
2013-03-09 04:05:00,23.7,23.5,30.31,West,270,0.0,-999.0,99,-99.99,,,0.00,Acu-Link.com,2013-03-09 09:05:00,
2013-03-09 04:21:00,23.5,23.3,30.31,West,270,0.0,-999.0,99,-99.99,,,0.00,Acu-Link.com,2013-03-09 09:21:00,
2013-03-09 04:36:00,22.5,22.3,30.31,West,270,0.0,-999.0,99,-99.99,,,0.00,Acu-Link.com,2013-03-09 09:36:00,
2013-03-09 04:51:00,22.1,21.9,30.31,West,270,0.0,-999.0,99,-99.99,,,0.00,Acu-Link.com,2013-03-09 09:51:00,
2013-03-09 05:06:00,22.1,21.9,30.32,West,270,0.0,-999.0,99,-99.99,,,0.00,Acu-Link.com,2013-03-09 10:06:00,
2013-03-09 05:21:00,22.1,21.9,30.32,West,270,0.0,-999.0,99,-99.99,,,0.00,Acu-Link.com,2013-03-09 10:21:00,
2013-03-09 05:37:00,21.9,21.7,30.32,West,270,2.2,-999.0,99,-99.99,,,0.00,Acu-Link.com,2013-03-09 10:37:00,
2013-03-09 05:52:00,23.4,23.2,30.32,West,270,0.0,-999.0,99,-99.99,,,0.00,Acu-Link.com,2013-03-09 10:52:00,
2013-03-09 06:07:00,23.4,23.2,30.33,West,270,0.0,-999.0,99,-99.99,,,0.00,Acu-Link.com,2013-03-09 11:07:00,
2013-03-09 06:23:00,22.8,22.6,30.33,West,270,0.0,-999.0,99,-99.99,,,0.00,Acu-Link.com,2013-03-09 11:23:00,
2013-03-09 06:38:00,22.8,22.6,30.34,West,270,0.0,-999.0,99,-99.99,,,0.00,Acu-Link.com,2013-03-09 11:38:00,
2013-03-09 06:53:00,23.0,22.8,30.34,West,270,0.0,-999.0,99,-99.99,,,0.00,Acu-Link.com,2013-03-09 11:53:00,
2013-03-09 07:09:00,22.8,22.6,30.34,West,270,0.0,-999.0,99,-99.99,,,0.00,Acu-Link.com,2013-03-09 12:09:00,
2013-03-09 07:24:00,24.6,24.4,30.34,West,270,0.0,-999.0,99,-99.99,,,0.00,Acu-Link.com,2013-03-09 12:24:00,
2013-03-09 07:39:00,26.1,25.9,30.34,West,270,0.0,-999.0,99,-99.99,,,0.00,Acu-Link.com,2013-03-09 12:39:00,
2013-03-09 07:54:00,27.1,26.9,30.34,SSE,157,2.7,-999.0,99,-99.99,,,0.00,Acu-Link.com,2013-03-09 12:54:00,
2013-03-09 08:10:00,27.7,27.5,30.34,SW,225,2.2,-999.0,99,-99.99,,,0.00,Acu-Link.com,2013-03-09 13:10:00,
2013-03-09 08:25:00,28.4,28.2,30.35,SW,225,2.2,-999.0,99,-99.99,,,0.00,Acu-Link.com,2013-03-09 13:25:00,
2013-03-09 08:40:00,29.1,28.9,30.36,SW,225,3.7,-999.0,99,-99.99,,,0.00,Acu-Link.com,2013-03-09 13:40:00,
2013-03-09 08:55:00,30.2,30.0,30.37,SW,225,2.2,-999.0,99,-99.99,,,0.00,Acu-Link.com,2013-03-09 13:55:00,
2013-03-09 09:11:00,31.1,30.6,30.36,SSW,202,3.7,-999.0,98,-99.99,,,0.00,Acu-Link.com,2013-03-09 14:11:00,
2013-03-09 09:26:00,32.4,31.4,30.35,SW,225,0.0,-999.0,96,-99.99,,,0.00,Acu-Link.com,2013-03-09 14:26:00,
2013-03-09 09:41:00,33.4,31.9,30.34,SSW,202,2.7,-999.0,94,-99.99,,,0.00,Acu-Link.com,2013-03-09 14:41:00,
2013-03-09 09:57:00,34.7,32.3,30.34,WNW,292,2.2,-999.0,91,-99.99,,,0.00,Acu-Link.com,2013-03-09 14:57:00,
2013-03-09 10:12:00,36.0,32.2,30.34,ENE,67,1.7,-999.0,86,-99.99,,,0.00,Acu-Link.com,2013-03-09 15:12:00,
2013-03-09 10:27:00,36.5,31.8,30.34,ENE,67,1.7,-999.0,83,-99.99,,,0.00,Acu-Link.com,2013-03-09 15:27:00,
2013-03-09 10:42:00,37.9,32.9,30.33,WNW,292,2.7,-999.0,82,-99.99,,,0.00,Acu-Link.com,2013-03-09 15:42:00,
2013-03-09 10:58:00,38.8,33.2,30.32,WNW,292,2.7,-999.0,80,-99.99,,,0.00,Acu-Link.com,2013-03-09 15:58:00,
2013-03-09 11:13:00,39.6,33.3,30.32,SSW,202,2.7,-999.0,78,-99.99,,,0.00,Acu-Link.com,2013-03-09 16:13:00,
2013-03-09 11:28:00,42.1,34.1,30.32,NW,315,5.3,-999.0,73,-99.99,,,0.00,Acu-Link.com,2013-03-09 16:28:00,
2013-03-09 11:43:00,41.9,33.5,30.31,West,270,2.7,-999.0,72,-99.99,,,0.00,Acu-Link.com,2013-03-09 16:43:00,
2013-03-09 11:59:00,43.2,33.0,30.31,WNW,292,3.2,-999.0,67,-99.99,,,0.00,Acu-Link.com,2013-03-09 16:59:00,
2013-03-09 12:14:00,45.1,34.0,30.30,West,270,3.7,-999.0,65,-99.99,,,0.00,Acu-Link.com,2013-03-09 17:14:00,
2013-03-09 12:29:00,44.8,32.6,30.30,WNW,292,1.7,-999.0,62,-99.99,,,0.00,Acu-Link.com,2013-03-09 17:29:00,
2013-03-09 12:45:00,43.7,32.3,30.29,East,90,4.7,-999.0,64,-99.99,,,0.00,Acu-Link.com,2013-03-09 17:45:00,
2013-03-09 13:00:00,44.4,32.2,30.29,NE,45,1.7,-999.0,62,-99.99,,,0.00,Acu-Link.com,2013-03-09 18:00:00,
2013-03-09 13:15:00,47.5,33.0,30.28,SW,225,3.7,-999.0,57,-99.99,,,0.00,Acu-Link.com,2013-03-09 18:15:00,
2013-03-09 13:30:00,46.6,32.6,30.27,South,180,4.7,-999.0,58,-99.99,,,0.00,Acu-Link.com,2013-03-09 18:30:00,
2013-03-09 13:46:00,48.0,32.2,30.27,WNW,292,3.7,-999.0,54,-99.99,,,0.00,Acu-Link.com,2013-03-09 18:46:00,
2013-03-09 14:01:00,46.4,33.7,30.26,ESE,112,3.2,-999.0,61,-99.99,,,0.00,Acu-Link.com,2013-03-09 19:01:00,
2013-03-09 14:16:00,48.2,33.2,30.26,SE,135,3.2,-999.0,56,-99.99,,,0.00,Acu-Link.com,2013-03-09 19:16:00,
2013-03-09 14:32:00,47.7,31.4,30.25,North,0,0.0,-999.0,53,-99.99,,,0.00,Acu-Link.com,2013-03-09 19:32:00,
2013-03-09 14:47:00,48.0,30.7,30.24,West,270,2.2,-999.0,51,-99.99,,,0.00,Acu-Link.com,2013-03-09 19:47:00,
2013-03-09 15:02:00,48.6,32.3,30.24,East,90,1.7,-999.0,53,-99.99,,,0.00,Acu-Link.com,2013-03-09 20:02:00,
2013-03-09 15:18:00,47.8,31.5,30.23,SE,135,3.2,-999.0,53,-99.99,,,0.00,Acu-Link.com,2013-03-09 20:18:00,
2013-03-09 15:33:00,48.2,30.9,30.22,East,90,4.7,-999.0,51,-99.99,,,0.00,Acu-Link.com,2013-03-09 20:33:00,
2013-03-09 15:48:00,48.6,31.3,30.22,NE,45,3.7,-999.0,51,-99.99,,,0.00,Acu-Link.com,2013-03-09 20:48:00,
2013-03-09 16:03:00,48.2,30.9,30.21,ESE,112,3.7,-999.0,51,-99.99,,,0.00,Acu-Link.com,2013-03-09 21:03:00,
2013-03-09 16:19:00,50.0,32.1,30.22,ESE,112,4.2,-999.0,50,-99.99,,,0.00,Acu-Link.com,2013-03-09 21:19:00,
2013-03-09 16:34:00,49.8,31.4,30.21,ESE,112,3.7,-999.0,49,-99.99,,,0.00,Acu-Link.com,2013-03-09 21:34:00,
2013-03-09 16:49:00,49.3,31.9,30.20,East,90,2.7,-999.0,51,-99.99,,,0.00,Acu-Link.com,2013-03-09 21:49:00,
2013-03-09 17:04:00,50.7,31.7,30.21,ENE,67,2.7,-999.0,48,-99.99,,,0.00,Acu-Link.com,2013-03-09 22:04:00,
2013-03-09 17:19:00,49.5,30.6,30.20,East,90,4.2,-999.0,48,-99.99,,,0.00,Acu-Link.com,2013-03-09 22:19:00,
2013-03-09 17:35:00,49.1,31.3,30.19,NE,45,2.2,-999.0,50,-99.99,,,0.00,Acu-Link.com,2013-03-09 22:35:00,
2013-03-09 17:50:00,47.7,30.0,30.20,ENE,67,3.7,-999.0,50,-99.99,,,0.00,Acu-Link.com,2013-03-09 22:50:00,
2013-03-09 18:05:00,45.9,29.3,30.19,East,90,2.7,-999.0,52,-99.99,,,0.00,Acu-Link.com,2013-03-09 23:05:00,
2013-03-09 18:20:00,44.6,28.5,30.20,East,90,1.7,-999.0,53,-99.99,,,0.00,Acu-Link.com,2013-03-09 23:20:00,
2013-03-09 18:36:00,43.3,33.8,30.20,NE,45,2.2,-999.0,69,-99.99,,,0.00,Acu-Link.com,2013-03-09 23:36:00,
2013-03-09 18:51:00,41.5,34.5,30.19,ENE,67,1.7,-999.0,76,-99.99,,,0.00,Acu-Link.com,2013-03-09 23:51:00,
2013-03-09 19:06:00,40.6,34.6,30.19,NE,45,2.2,-999.0,79,-99.99,,,0.00,Acu-Link.com,2013-03-10 00:06:00,
2013-03-09 19:22:00,39.7,34.0,30.19,ENE,67,2.2,-999.0,80,-99.99,,,0.00,Acu-Link.com,2013-03-10 00:22:00,
2013-03-09 19:37:00,38.8,33.8,30.18,East,90,1.1,-999.0,82,-99.99,,,0.00,Acu-Link.com,2013-03-10 00:37:00,
2013-03-09 19:52:00,37.8,33.1,30.18,East,90,1.7,-999.0,83,-99.99,,,0.00,Acu-Link.com,2013-03-10 00:52:00,
2013-03-09 20:07:00,37.2,31.9,30.18,ESE,112,2.7,-999.0,81,-99.99,,,0.00,Acu-Link.com,2013-03-10 01:07:00,
2013-03-09 20:23:00,37.6,29.7,30.17,ESE,112,3.2,-999.0,73,-99.99,,,0.00,Acu-Link.com,2013-03-10 01:23:00,
2013-03-09 20:38:00,37.9,29.0,30.17,ESE,112,2.7,-999.0,70,-99.99,,,0.00,Acu-Link.com,2013-03-10 01:38:00,
2013-03-09 20:53:00,37.9,29.0,30.16,East,90,1.1,-999.0,70,-99.99,,,0.00,Acu-Link.com,2013-03-10 01:53:00,
2013-03-09 21:08:00,37.4,28.9,30.16,East,90,3.2,-999.0,71,-99.99,,,0.00,Acu-Link.com,2013-03-10 02:08:00,
2013-03-09 21:23:00,37.2,29.0,30.16,ESE,112,2.7,-999.0,72,-99.99,,,0.00,Acu-Link.com,2013-03-10 02:23:00,
2013-03-09 21:39:00,36.7,29.2,30.15,ESE,112,2.7,-999.0,74,-99.99,,,0.00,Acu-Link.com,2013-03-10 02:39:00,
2013-03-09 21:54:00,36.3,29.5,30.15,ESE,112,2.7,-999.0,76,-99.99,,,0.00,Acu-Link.com,2013-03-10 02:54:00,
2013-03-09 22:09:00,35.8,29.3,30.14,ESE,112,2.2,-999.0,77,-99.99,,,0.00,Acu-Link.com,2013-03-10 03:09:00,
2013-03-09 22:24:00,35.2,29.0,30.14,ESE,112,0.0,-999.0,78,-99.99,,,0.00,Acu-Link.com,2013-03-10 03:24:00,
2013-03-09 22:39:00,34.3,29.1,30.14,East,90,0.0,-999.0,81,-99.99,,,0.00,Acu-Link.com,2013-03-10 03:39:00,
2013-03-09 22:55:00,34.2,29.0,30.13,East,90,2.2,-999.0,81,-99.99,,,0.00,Acu-Link.com,2013-03-10 03:55:00,
2013-03-09 23:10:00,34.2,29.0,30.13,ENE,67,1.7,-999.0,81,-99.99,,,0.00,Acu-Link.com,2013-03-10 04:10:00,
2013-03-09 23:25:00,33.8,28.9,30.12,ENE,67,2.2,-999.0,82,-99.99,,,0.00,Acu-Link.com,2013-03-10 04:25:00,
2013-03-09 23:40:00,34.5,28.7,30.11,East,90,2.7,-999.0,79,-99.99,,,0.00,Acu-Link.com,2013-03-10 04:40:00,
2013-03-09 23:55:00,36.1,28.6,30.11,ESE,112,3.2,-999.0,74,-99.99,,,0.00,Acu-Link.com,2013-03-10 04:55:00,